Regional Weather Roundup
Issued by NWS

Home | Current Version | Previous Version | Graphics & Text | Print | Product List | Glossary On
Versions: 1 2 3 4 5 6 7 8 9 10 11 12 13 14 15 16 17 18 19 20 21 22 23 24 25 26 27 28 29 30 31 32 33 34 35 36 37 38 39 40 41 42 43 44 45 46 47 48 49 50
000
ASUS43 KBIS 221202
RWRND

NORTH DAKOTA REGIONAL WEATHER ROUNDUP
NATIONAL WEATHER SERVICE BISMARCK ND
600 AM CST WED NOV 22 2017

NOTE: "FAIR" INDICATES FEW OR NO CLOUDS BELOW 12,000 FEET WITH NO
SIGNIFICANT WEATHER AND/OR OBSTRUCTIONS TO VISIBILITY.


NDZ001>003-009>011-017-221300-
NORTHWEST NORTH DAKOTA

CITY           SKY/WX    TMP DP  RH WIND       PRES   REMARKS
WILLISTON      CLOUDY    24  14  65 S5        29.89F WCI  18
6HR MIN TEMP:  12; 6HR MAX TEMP:  24;

MINOT          CLOUDY    18   9  68 SE8       29.94F WCI   8
MINOT AFB      CLOUDY    17  10  75 SE13      29.93F WCI   3
$$

NDZ018>021-031>035-040>046-221300-
SOUTHWEST NORTH DAKOTA

CITY           SKY/WX    TMP DP  RH WIND       PRES   REMARKS
BISMARCK       CLOUDY    17  12  80 SE8       30.06F WCI   7
6HR MIN TEMP:   8; 6HR MAX TEMP:  17;

DICKINSON      CLOUDY    31  20  63 S14       29.90F
GARRISON         N/A     20  14  77 S12       29.98F WCI   8
6HR MIN TEMP:  12; 6HR MAX TEMP:  20;

HETTINGER ARPT CLOUDY    28  17  63 SW3       30.00F
$$

NDZ004>008-012>016-024-026-027-054-221300-
NORTHEAST NORTH DAKOTA

CITY           SKY/WX    TMP DP  RH WIND       PRES   REMARKS
GRAND FORKS    CLOUDY    11   8  88 S8        30.19F WCI  -1
GRND FRKS AFB  PTCLDY    12   7  79 S9        30.17F WCI   0
DEVILS LAKE    CLOUDY    14   8  77 S10       30.08F WCI   1
$$

NDZ022-023-025-028>030-036>039-047>053-221300-
SOUTHEAST NORTH DAKOTA

CITY           SKY/WX    TMP DP  RH WIND       PRES   REMARKS
FARGO          CLOUDY    11   6  81 S10       30.24F WCI  -3
6HR MIN TEMP:   8; 6HR MAX TEMP:  12;

JAMESTOWN      PTCLDY    11   7  84 S12       30.12F WCI  -3
$$





USA.gov is the U.S. government's official web portal to all federal, state and local government web resources and services.